COSMOS 1275 DEB, 18640

Orbit data source: Space-Track

COSMOS 1275 DEB, 18640 is space debris in LEO originally from a launch on Thu, 04 Jun 1981 UTC launched from the Plesetsk Missile And Space Complex (PKMTR). Debris objects in space refer to the collection of defunct objects orbiting the Earth. Examples of debris include non-operational satellites, rocket bodies, and fragments generated from explosions, collisions, or faulty payload assembly.

Loading next visibility...
Identifier
18640, 1981-053MA
Orbit
LEO
Country
Flag of CISCIS
Related business
Manufacturer
Unknown
Mission
Spacecraft
Bus & Motor
Unknown
Mass
Unknown
Launch date (UTC)
1981-06-04 (45 years ago)
Launch vehicle
Unknown
Launch site
Plesetsk Missile And Space Complex (PKMTR)
Object type
Payload
Rocket body
Debris
Shape & HBR
Unknown shape, 0.1 m
Radar Cross Section
Small (<0.1 m²)

Expand to show TLE details & history
Last TLE update: 1 day ago

TLE from 1 day ago
0 COSMOS 1275 DEB
1 18640U 81053MA  26103.51988809  .00001216  00000-0  98501-3 0  9992
2 18640  83.2026 127.4080 0087394  77.7467  76.2490 13.87578421 52802
Epoch: 2026-04-13T12:28Z
TLE epoch observation values (Epoch: 2026-04-13T12:28:38.330Z)
Latitude
24.8686°
Longitude
-84.61164°
Altitude
925.484 km
Speed
7.399 km/s
True Right ascension
20h 17m 01s
True Declination
24° 44' 26"
Sunlit
Object was in daylight at epoch
Visualization orbit readout
Latitude
Unknown
Longitude
Unknown
Altitude
Unknown
Speed
Unknown
Apparent Right ascension
Unknown
Apparent Declination
Unknown
Sunlit
N/A
Visualization observer readout
Local Sidereal Time
06:21:01
Azimuth
Unknown
Elevation
Unknown
Doppler factor
Unknown
Orbital elements
Apogee altitude
998.157 km
Perigee altitude
870.345 km
Semi-major axis
7,312.388 km
Eccentricity
0.00874
Inclination
83.2026°
RAAN
127.408°
Arg. of periapsis
77.7467°
True anomaly
77.22424°
Mean anomaly
76.249°
Eccentric anomaly
76.73637°
Mean motion
3.471 °/min
Orbital period
103.72 mins
BSTAR
0.00098501
Loading maneuver chart data...
Computing Atmospheric mass density...

Documentation

Showing up to 5 results
|